User: anonymous   Login
Location: Marsån
(66.4167°N, 22.2833°E)
Time: 17:08:00
(UTC+00:00)
Language:

Cosmos 1464 Rocket - Orbit

View from above orbital plane
View from above orbital plane
View from above satellite
View from above satellite

Ground track
Ground track

The orbit data is extracted from the following two-line orbital elements,

1 14085U 83048B   24148.73873497  .00000122  00000-0  10902-3 0  9998
2 14085  82.9450   6.8527 0032718 210.5225 149.4029 13.76460774 59305
Epoch (UTC): 27 May 2024 17:43:46
Eccentricity: 0.0032718
inclination: 82.9450°
perigee height: 952 km
apogee height: 1000 km
right ascension of ascending node: 6.8527°
argument of perigee: 210.5225°
revolutions per day: 13.76460774
mean anomaly at epoch: 149.4029°
orbit number at epoch: 5930

The dashed part of the orbit path shows where the satellite is in the earth's shadow,  

DLR